This demonstration page uses our WeatherBlox Daily Observations layout. Learn more.

Left ArrowRight Arrow

Hourly Observations for December 16, 2021

Temp ( °F °C ) Dew Point ( °F °C ) Humidity (%) Winds ( mph kmh ) Pressure ( in mb ) Visibility ( mi km ) Precip ( " mm )
12:56 am 00:56 Clear 31 -0.6 22 -5.6 69 69 NW 15 24 29.98 1015 10 16 0.00 0.00
1:56 am 01:56 Clear 29 -1.7 21 -6.1 72 72 WNW 12 19 30.02 1016 10 16 0.00 0.00
2:56 am 02:56 Clear 27 -2.8 21 -6.1 78 78 W 9 15 30.07 1018 10 16 0.00 0.00
3:56 am 03:56 Clear 26 -3.3 20 -6.7 78 78 W 8 13 30.08 1019 10 16 0.00 0.00
4:56 am 04:56 Clear 26 -3.3 19 -7.2 75 75 W 9 15 30.10 1019 10 16 0.00 0.00
5:56 am 05:56 Partly Cloudy 25 -3.9 19 -7.2 78 78 WSW 9 15 30.07 1018 10 16 0.00 0.00
6:56 am 06:56 Clear 24 -4.4 19 -7.2 81 81 WSW 7 11 30.10 1019 10 16 0.00 0.00
7:56 am 07:56 Sunny 24 -4.4 18 -7.8 77 77 W 8 13 30.12 1020 10 16 0.00 0.00
8:56 am 08:56 Sunny 26 -3.3 19 -7.2 75 75 WSW 8 13 30.13 1020 10 16 0.00 0.00
9:56 am 09:56 Sunny 30 -1.1 21 -6.1 69 69 WSW 10 17 30.14 1021 10 16 0.00 0.00
10:56 am 10:56 Sunny 34 1.1 20 -6.7 56 56 W 12 19 30.15 1021 10 16 0.00 0.00
11:56 am 11:56 Sunny 37 2.8 22 -5.6 54 54 WSW 12 19 30.13 1020 10 16 0.00 0.00
12:56 pm 12:56 Sunny 39 3.9 22 -5.6 50 50 W 12 19 30.11 1020 10 16 0.00 0.00
1:56 pm 13:56 Sunny 40 4.4 21 -6.1 47 47 WNW 6 9 30.08 1019 10 16 0.00 0.00
2:56 pm 14:56 Sunny 41 5 19 -7.2 41 41 W 5 7 30.06 1018 10 16 0.00 0.00
3:56 pm 15:56 Sunny 41 5 19 -7.2 41 41 SSE 6 9 30.04 1017 10 16 0.00 0.00
4:56 pm 16:56 Sunny 34 1.1 21 -6.1 59 59 S 7 11 30.06 1018 10 16 0.00 0.00
5:56 pm 17:56 Clear 33 0.6 19 -7.2 56 56 SSE 6 9 30.07 1018 10 16 0.00 0.00
6:56 pm 18:56 Clear 31 -0.6 20 -6.7 64 64 SE 7 11 30.07 1018 10 16 0.00 0.00
7:56 pm 19:56 Clear 29 -1.7 20 -6.7 69 69 SE 7 11 30.06 1018 10 16 0.00 0.00
8:56 pm 20:56 Clear 29 -1.7 19 -7.2 66 66 SSE 7 11 30.06 1018 10 16 0.00 0.00
9:56 pm 21:56 Clear 26 -3.3 19 -7.2 75 75 SE 7 11 30.05 1018 10 16 0.00 0.00
10:56 pm 22:56 Clear 27 -2.8 20 -6.7 75 75 SE 8 13 30.03 1017 10 16 0.00 0.00
11:56 pm 23:56 Clear 27 -2.8 20 -6.7 75 75 SE 9 15 30.04 1017 10 16 0.00 0.00

Powered by AerisWeather